AC4VM Weather Reports


time (UTC)temp
F
wind
direction
speed
knots
gust
knots
rain 1hr
in
rain 24hr
in
rain mn
in
humidity
%
barometer
mb
20260505124523 58 0.0 0.0 0.00 0.00 0.00 77 1013.0
20260505123021 56 214 0.0 2.6 0.00 0.00 0.00 81 1013.0
20260505121520 54 273 0.0 0.0 0.00 0.00 0.00 84 1012.7
20260505120034 53 273 0.0 0.9 0.00 0.00 0.00 86 1012.8
20260505114519 50 274 0.0 0.0 0.00 0.00 0.00 89 1012.8
20260505113016 49 274 0.0 0.0 0.00 0.00 0.00 89 1012.5
20260505111524 48 274 0.0 0.9 0.00 0.00 0.00 90 1012.2
20260505101509 48 266 0.0 1.7 0.00 0.00 0.00 89 1012.0
20260505100007 49 262 0.9 4.3 0.00 0.00 0.00 88 1012.1
20260505094506 49 2 0.0 1.7 0.00 0.00 0.00 87 1011.9
20260505093004 50 280 0.0 1.7 0.00 0.00 0.00 87 1012.0
20260505091621 50 280 0.0 1.7 0.00 0.00 0.00 85 1011.9
20260505090122 51 280 0.9 2.6 0.00 0.00 0.00 85 1011.9
20260505084614 51 280 0.0 1.7 0.00 0.00 0.00 85 1011.8
20260505083108 51 280 0.0 0.9 0.00 0.00 0.00 84 1011.8
20260505081601 52 280 0.9 2.6 0.00 0.00 0.00 82 1011.4
20260505080059 53 255 0.9 3.5 0.00 0.00 0.00 81 1011.4
20260505074547 54 244 0.0 0.0 0.00 0.00 0.00 78 1011.3
20260505073052 55 244 0.0 0.0 0.00 0.00 0.00 76 1011.3
20260505071547 56 243 0.0 0.9 0.00 0.00 0.00 74 1011.3
20260505070044 58 243 0.0 0.0 0.00 0.00 0.00 70 1011.5
20260505064537 58 243 0.0 0.0 0.00 0.00 0.00 69 1011.5
20260505063040 59 243 0.0 1.7 0.00 0.00 0.00 67 1011.6
20260505061535 59 242 0.0 0.0 0.00 0.00 0.00 69 1011.4
20260505060053 60 242 0.0 0.0 0.00 0.00 0.00 68 1011.4
20260505054533 61 242 0.9 1.7 0.00 0.00 0.00 68 1011.5
20260505053037 61 237 0.0 1.7 0.00 0.00 0.00 67 1011.4
20260505051530 61 245 0.9 2.6 0.00 0.00 0.00 68 1011.3
20260505041529 60 246 0.0 0.9 0.00 0.00 0.00 67 1011.2
20260505040024 60 246 0.0 1.7 0.00 0.00 0.00 68 1011.2
20260505034522 63 244 0.9 2.6 0.00 0.00 0.00 61 1011.2
20260505033021 63 243 0.9 1.7 0.00 0.00 0.00 60 1011.3
20260505031520 63 243 0.0 1.7 0.00 0.00 0.00 58 1011.4
20260505030020 64 241 0.9 1.7 0.00 0.00 0.00 57 1011.3
20260505024520 64 241 0.9 2.6 0.00 0.00 0.00 56 1011.5
20260505023021 65 240 0.9 1.7 0.00 0.00 0.00 56 1011.5
20260505021519 66 236 0.9 2.6 0.00 0.00 0.00 55 1011.4
20260505020027 66 256 0.0 1.7 0.00 0.00 0.00 55 1011.4
20260505014531 67 223 0.0 2.6 0.00 0.00 0.00 54 1011.2
20260505013023 67 231 1.7 7.0 0.00 0.00 0.00 54 1011.3
20260505011520 68 221 0.0 4.3 0.00 0.00 0.00 53 1011.1
20260505010017 68 204 0.9 8.7 0.00 0.00 0.00 55 1011.0
20260505004516 68 235 0.9 2.6 0.00 0.00 0.00 56 1011.0
20260505003023 69 220 0.0 1.7 0.00 0.00 0.00 55 1010.7
20260505001515 70 233 0.9 5.2 0.00 0.00 0.00 55 1010.7
20260505000015 70 130 0.9 4.3 0.00 0.00 0.00 55 1010.8
20260504234514 71 233 0.0 2.6 0.00 0.00 0.00 52 1010.7
20260504233016 72 143 0.9 7.8 0.00 0.00 0.00 50 1010.6
20260504231517 73 238 1.7 4.3 0.00 0.00 0.00 48 1010.6
20260504230013 74 271 1.7 5.2 0.00 0.00 0.00 47 1010.4
20260504224517 74 102 0.9 5.2 0.00 0.00 0.00 48 1010.4
20260504223015 74 238 1.7 7.0 0.00 0.00 0.00 49 1010.5
20260504221509 74 145 0.9 3.5 0.00 0.00 0.00 52 1010.6
20260504220010 74 258 0.0 3.5 0.00 0.00 0.00 49 1010.7
20260504214507 74 214 1.7 3.5 0.00 0.00 0.00 49 1010.8
20260504213018 75 232 0.9 6.1 0.00 0.00 0.00 50 1010.8
20260504211513 75 284 0.9 3.5 0.00 0.00 0.00 44 1010.8
20260504210005 75 137 1.7 13.0 0.00 0.00 0.00 48 1010.9
20260504204503 76 253 1.7 9.6 0.00 0.00 0.00 44 1011.0
20260504203001 77 214 1.7 11.3 0.00 0.00 0.00 49 1011.2
20260504201612 75 146 2.6 6.1 0.00 0.00 0.00 49 1011.3
20260504200057 74 239 0.9 3.5 0.00 0.00 0.00 49 1011.6
20260504194557 75 204 0.9 7.0 0.00 0.00 0.00 50 1012.0
20260504193100 75 227 0.9 4.3 0.00 0.00 0.00 49 1012.2
20260504191607 75 144 1.7 7.8 0.00 0.00 0.00 50 1012.3
20260504190059 73 223 0.9 4.3 0.00 0.00 0.00 52 1012.7
20260504184551 73 261 0.9 6.1 0.00 0.00 0.00 50 1012.8
20260504183042 73 204 0.9 3.5 0.00 0.00 0.00 48 1013.1
20260504181541 73 282 1.7 7.0 0.00 0.00 0.00 49 1013.3
20260504180040 72 260 0.9 5.2 0.00 0.00 0.00 50 1013.5
20260504174543 72 214 0.9 8.7 0.00 0.00 0.00 53 1013.6
20260504173035 73 270 1.7 5.2 0.00 0.00 0.00 56 1013.7
20260504171537 72 273 0.9 7.0 0.00 0.00 0.00 52 1014.0